Home   Weather   Tsu   Past weeks

Flag for Japan Past Weather in Tsu, Japan — Yesterday and Last 2 Weeks

Now
76 °F

Passing clouds.


Feels Like: 78 °F
Forecast: 66 / 85 °F
Wind: 5 mph from South

Location: Tsu

Current Time: Aug 30, 2016 at 10:11:03 PM

Latest Report: Aug 30, 2016 at 9:00 PM


Visibility: 19 mi

Pressure: 29.35 "Hg

Humidity: 49%

Dew Point: 56 °F

Location of TsuLocation

Past Weather in Tsu — Graph

°F

Tsu Temperature Yesterday

Maximum temperature yesterday: 84 °F (at 10:00 AM)
Minimum temperature yesterday: 71 °F (at 11:00 PM)
Average temperature yesterday: 79 °F

High & Low Weather Summary for the Past Weeks

 TemperatureHumidityPressure
High95 °F (Aug 22, 2:00 PM)91% (Aug 28, 5:00 AM)29.80 "Hg (Aug 28, 5:00 AM)
Low69 °F (Aug 30, 4:00 AM)36% (Aug 30, 2:00 PM)29.21 "Hg (Aug 29, 3:00 PM)
Average83 °F69%29.60 "Hg
* Reported Aug 15 8:00 PM — Aug 30 8:00 PM, Tsu, Weather by CustomWeather, © 2016

Note: Actual official high and low records may vary slightly from our data, if they occured in-between our weather recording intervals... More about our weather records

Advertising

Tsu Weather History for the Previous 24 Hours

Scroll right to see more
 ConditionsComfort  
Time TempWeatherWind HumidityBarometerVisibility
8:00 PM
Tue, Aug 30
77 °FWarm.8 mph48%29.32 "HgN/A
7:00 PM78 °FWarm.7 mph46%29.29 "HgN/A
6:00 PM79 °FWarm.8 mph43%29.26 "HgN/A
5:00 PM81 °FWarm.13 mph40%29.26 "HgN/A
4:00 PM82 °FPleasantly warm.13 mph38%29.23 "HgN/A
3:00 PM83 °FPassing clouds.13 mph37%29.21 "Hg19 mi
2:00 PM83 °FPleasantly warm.18 mph36%29.23 "HgN/A
1:00 PM83 °FWarm.17 mph44%29.23 "HgN/A
12:00 PM81 °FWarm.14 mph45%29.23 "HgN/A
11:00 AM80 °FWarm.16 mph47%29.26 "HgN/A
10:00 AM79 °FWarm.15 mph48%29.26 "HgN/A
9:00 AM76 °FPassing clouds.15 mph53%29.26 "Hg9 mi
8:00 AM75 °FMild.13 mph59%29.26 "HgN/A
7:00 AM73 °FMild.10 mph64%29.26 "HgN/A
6:00 AM71 °FMild.5 mph73%29.26 "HgN/A
5:00 AM71 °FMild.8 mph78%29.23 "HgN/A
4:00 AM69 °FMild.3 mph88%29.26 "HgN/A
3:00 AM70 °FMild.3 mph89%29.23 "HgN/A
2:00 AM70 °FMild.5 mph88%29.26 "HgN/A
1:00 AM70 °FMild.2 mph88%29.26 "HgN/A
12:00 AM70 °FMild.8 mph87%29.23 "HgN/A
11:00 PM
Mon, Aug 29
71 °FMild.8 mph84%29.26 "HgN/A
10:00 PM74 °FMild.8 mph71%29.23 "HgN/A
Weather by CustomWeather, © 2016

See weather overviewHow to use our weather pages